Location: Doazon
(43.4500°N, 0.5500°W)
Time: 02:34:41
(UTC+00:00)

Cosmos 1933 - Pass Details

Date: 05 December 2025
Orbit: 510 x 518 km, 82.5° (Epoch: 12 January)

Event Time Altitude Azimuth Distance (km) Brightness Sun altitude
Rises 18:22:44 0° 188° (S) 2,630 7.1 -20.5°
Reaches altitude 10° 18:24:51 10° 189° (S) 1,746 6.1 -20.8°
Maximum altitude 18:28:41 85° 276° (W) 527 3.1 -21.5°
Enters shadow 18:29:33 53° 1° (N) 646 3.5 -21.7°
